ASL1AW HELX-LYBE

Flight info

Callsign ASL1AW
Flight time N/A
Altitude 24000
Route LXR A727 CVO/N0471F400 L617 NOZ L551 ANTAR UN133 KPC UN137 SKP UL617 MAKED DCT LONTA UL608 DOLEV DCT ELGEB
Aircraft A332/H-SDE3GHIJ2J3J5M1RVWXY/LB2D1

Departure

Time 2026-04-20 09:25
Airport Luxor International Airport (HELX)

Arrival

Time N/A
Airport Belgrade Nikola Tesla Airport (LYBE)
Time Latitude Longitude Altitude Speed Heading
2026-04-20 09:09 25.67269 32.70113 296 ft 0 kts 299°
2026-04-20 09:13 25.67268 32.70115 296 ft 1 kts 299°
2026-04-20 09:14 25.67261 32.70129 296 ft 2 kts 299°
2026-04-20 09:14 25.67254 32.70143 296 ft 2 kts 299°
2026-04-20 09:14 25.67246 32.70158 297 ft 2 kts 299°
2026-04-20 09:14 25.67239 32.70173 297 ft 2 kts 299°
2026-04-20 09:15 25.67237 32.70177 297 ft 2 kts 299°
2026-04-20 09:15 25.67229 32.70190 297 ft 2 kts 319°
2026-04-20 09:15 25.67217 32.70200 297 ft 2 kts 337°
2026-04-20 09:15 25.67202 32.70204 297 ft 2 kts 355°
2026-04-20 09:16 25.67188 32.70204 298 ft 2 kts 13°
2026-04-20 09:16 25.67176 32.70200 298 ft 0 kts 27°
2026-04-20 09:16 25.67173 32.70198 298 ft 0 kts 28°
2026-04-20 09:19 25.67184 32.70205 298 ft 5 kts 28°
2026-04-20 09:20 25.67197 32.70213 297 ft 7 kts 28°
2026-04-20 09:20 25.67216 32.70224 297 ft 10 kts 28°
2026-04-20 09:20 25.67290 32.70265 297 ft 11 kts 26°
2026-04-20 09:20 25.67347 32.70295 297 ft 6 kts 25°
2026-04-20 09:21 25.67406 32.70325 297 ft 12 kts 25°
2026-04-20 09:21 25.67499 32.70374 295 ft 14 kts 27°
2026-04-20 09:21 25.67510 32.70464 297 ft 16 kts 113°
2026-04-20 09:21 25.67456 32.70587 299 ft 16 kts 115°
2026-04-20 09:22 25.67513 32.70662 298 ft 15 kts 19°
2026-04-20 09:22 25.67654 32.70713 298 ft 23 kts 21°
2026-04-20 09:22 25.67793 32.70786 297 ft 20 kts 25°
2026-04-20 09:22 25.67933 32.70851 296 ft 24 kts 22°
2026-04-20 09:23 25.68096 32.70928 296 ft 25 kts 21°
2026-04-20 09:23 25.68259 32.71001 294 ft 24 kts 22°
2026-04-20 09:23 25.68369 32.71077 293 ft 15 kts 78°
2026-04-20 09:23 25.68360 32.71175 294 ft 8 kts 120°
2026-04-20 09:24 25.68334 32.71201 295 ft 4 kts 168°
2026-04-20 09:24 25.68299 32.71198 295 ft 3 kts 195°
2026-04-20 09:24 25.68276 32.71188 295 ft 12 kts 201°
2026-04-20 09:24 25.67957 32.71041 298 ft 87 kts 203°
2026-04-20 09:25 25.67163 32.70679 305 ft 154 kts 205°
2026-04-20 09:25 25.66088 32.70179 827 ft 171 kts 205°
2026-04-20 09:25 25.65047 32.69712 1770 ft 162 kts 208°
2026-04-20 09:25 25.64051 32.69247 2488 ft 155 kts 207°
2026-04-20 09:26 25.62962 32.68747 2740 ft 178 kts 208°
2026-04-20 09:26 25.61772 32.68205 3104 ft 194 kts 206°
2026-04-20 09:26 25.60480 32.67601 3471 ft 210 kts 207°
2026-04-20 09:26 25.59056 32.66942 3740 ft 236 kts 206°
2026-04-20 09:27 25.57430 32.66170 4020 ft 267 kts 207°
2026-04-20 09:27 25.55729 32.65184 4437 ft 287 kts 222°
2026-04-20 09:27 25.54550 32.63447 5382 ft 281 kts 249°
2026-04-20 09:27 25.54231 32.61428 6451 ft 271 kts 277°
2026-04-20 09:28 25.54777 32.59445 7255 ft 272 kts 297°
2026-04-20 09:28 25.55907 32.57806 8141 ft 276 kts 317°
2026-04-20 09:28 25.57487 32.56576 8959 ft 280 kts 322°
2026-04-20 09:28 25.58785 32.55002 9792 ft 280 kts 305°
2026-04-20 09:29 25.60051 32.53338 10529 ft 289 kts 309°
2026-04-20 09:29 25.61405 32.51603 11031 ft 306 kts 309°
2026-04-20 09:29 25.62835 32.49772 11402 ft 325 kts 308°
2026-04-20 09:29 25.64346 32.47831 11747 ft 344 kts 309°
2026-04-20 09:30 25.65952 32.45770 12224 ft 357 kts 308°
2026-04-20 09:30 25.67565 32.43705 13011 ft 358 kts 309°
2026-04-20 09:30 25.69539 32.41994 13694 ft 370 kts 329°
2026-04-20 09:30 25.72057 32.41136 14378 ft 382 kts 347°
2026-04-20 09:31 25.74730 32.41169 15013 ft 396 kts
2026-04-20 09:31 25.77365 32.42196 15618 ft 408 kts 22°
2026-04-20 09:31 25.80020 32.43327 16120 ft 407 kts 10°
2026-04-20 09:31 25.82765 32.44217 16682 ft 413 kts 12°
2026-04-20 09:32 25.85540 32.45054 17282 ft 415 kts 11°
2026-04-20 09:32 25.88319 32.45933 17828 ft 419 kts 10°
2026-04-20 09:32 25.91145 32.46811 18333 ft 425 kts 11°
2026-04-20 09:32 25.94014 32.47767 18882 ft 432 kts 16°
2026-04-20 09:33 25.96634 32.49508 19366 ft 447 kts 35°
2026-04-20 09:33 25.98761 32.52022 19809 ft 460 kts 52°
2026-04-20 09:33 26.00325 32.55151 20294 ft 465 kts 59°
2026-04-20 09:33 26.02089 32.58200 20681 ft 469 kts 55°
2026-04-20 09:34 26.03964 32.61161 21075 ft 468 kts 44°
2026-04-20 09:34 26.06448 32.63371 21512 ft 460 kts 25°
2026-04-20 09:34 26.12455 32.65362 22334 ft 442 kts 356°
2026-04-20 09:35 26.15428 32.65028 22704 ft 428 kts 338°
2026-04-20 09:35 26.18159 32.63875 23336 ft 418 kts 331°
2026-04-20 09:35 26.20947 32.62819 23693 ft 426 kts 334°
2026-04-20 09:35 26.23791 32.61829 24073 ft 431 kts 336°
2026-04-20 09:36 26.26690 32.60896 24530 ft 433 kts 336°
2026-04-20 09:36 26.29599 32.59981 24936 ft 436 kts 336°
2026-04-20 09:36 26.32523 32.59064 25300 ft 439 kts 336°
2026-04-20 09:36 26.35508 32.58139 25717 ft 441 kts 336°
2026-04-20 09:37 26.38442 32.57225 26137 ft 442 kts 336°
2026-04-20 09:37 26.41445 32.56292 26557 ft 444 kts 336°
2026-04-20 09:37 26.44442 32.55358 26891 ft 448 kts 336°
2026-04-20 09:37 26.47445 32.54425 27295 ft 449 kts 335°
2026-04-20 09:38 26.50439 32.53489 27602 ft 452 kts 335°
2026-04-20 09:38 26.53492 32.52541 27947 ft 455 kts 336°
2026-04-20 09:38 26.56556 32.51584 28326 ft 457 kts 335°
2026-04-20 09:38 26.59636 32.50621 28590 ft 461 kts 335°
2026-04-20 09:39 26.62708 32.49662 28939 ft 462 kts 335°
2026-04-20 09:39 26.65815 32.48691 29302 ft 463 kts 335°
2026-04-20 09:39 26.68916 32.47726 29697 ft 462 kts 335°
2026-04-20 09:39 26.72043 32.46748 30121 ft 460 kts 334°
2026-04-20 09:40 26.75084 32.45800 30610 ft 456 kts 334°
2026-04-20 09:40 26.78163 32.44834 30986 ft 455 kts 334°
2026-04-20 09:40 26.81187 32.43883 31375 ft 453 kts 334°
2026-04-20 09:40 26.84205 32.42939 31699 ft 453 kts 333°
2026-04-20 09:41 26.87277 32.41972 31971 ft 455 kts 334°
2026-04-20 09:41 26.90327 32.41016 32342 ft 453 kts 333°
2026-04-20 09:41 26.93344 32.40070 32801 ft 449 kts 333°
2026-04-20 09:41 26.96355 32.39125 33125 ft 449 kts 333°
2026-04-20 09:42 26.99388 32.38170 33630 ft 445 kts 333°
2026-04-20 09:42 27.02384 32.37233 34072 ft 443 kts 333°
2026-04-20 09:42 27.05340 32.36299 34481 ft 441 kts 333°
2026-04-20 09:42 27.08306 32.35365 34916 ft 438 kts 332°
2026-04-20 09:43 27.11272 32.34431 35363 ft 436 kts 332°
2026-04-20 09:43 27.14198 32.33506 35780 ft 434 kts 331°
2026-04-20 09:43 27.17086 32.32601 36285 ft 430 kts 331°
2026-04-20 09:43 27.19962 32.31691 36614 ft 430 kts 331°
2026-04-20 09:44 27.22869 32.30772 36867 ft 433 kts 331°
2026-04-20 09:44 27.25747 32.29860 37316 ft 429 kts 330°
2026-04-20 09:44 27.28634 32.28949 37610 ft 428 kts 330°
2026-04-20 09:44 27.31489 32.28044 37816 ft 430 kts 330°
2026-04-20 09:45 27.34361 32.27138 38116 ft 427 kts 330°
2026-04-20 09:45 27.37241 32.26223 37953 ft 427 kts 331°
2026-04-20 09:45 27.42948 32.24414 38033 ft 429 kts 330°
2026-04-20 09:46 27.48669 32.22601 38027 ft 428 kts 331°
2026-04-20 09:46 27.54397 32.20785 38030 ft 427 kts 331°
2026-04-20 09:47 27.60151 32.18955 38025 ft 429 kts 330°
2026-04-20 09:47 27.65892 32.17129 38034 ft 428 kts 330°
2026-04-20 09:48 27.71652 32.15297 38037 ft 428 kts 331°
2026-04-20 09:48 27.77395 32.13465 38033 ft 428 kts 331°
2026-04-20 09:49 27.83142 32.11629 38036 ft 432 kts 332°
2026-04-20 09:49 27.88932 32.09780 38035 ft 432 kts 332°
2026-04-20 09:50 27.94711 32.07932 38037 ft 431 kts 332°
2026-04-20 09:50 28.00483 32.06084 38043 ft 433 kts 332°
2026-04-20 09:51 28.06260 32.04255 38038 ft 431 kts 332°
2026-04-20 09:51 28.12073 32.02435 38037 ft 433 kts 332°
2026-04-20 09:52 28.17896 32.00608 38036 ft 435 kts 333°
2026-04-20 09:52 28.23734 31.98779 38035 ft 433 kts 332°
2026-04-20 09:53 28.29587 31.96941 38036 ft 436 kts 333°
2026-04-20 09:53 28.35399 31.95113 38036 ft 433 kts 333°
2026-04-20 09:54 28.41237 31.93271 38037 ft 438 kts 333°
2026-04-20 09:54 28.47118 31.91416 38037 ft 437 kts 333°
2026-04-20 09:55 28.52982 31.89570 38037 ft 435 kts 333°
2026-04-20 09:55 28.58807 31.87726 38033 ft 437 kts 333°
2026-04-20 09:56 28.64680 31.85868 38025 ft 439 kts 333°
2026-04-20 09:56 28.70575 31.84000 38018 ft 438 kts 333°
2026-04-20 09:57 28.76463 31.82134 38023 ft 436 kts 333°
2026-04-20 09:57 28.82320 31.80276 38021 ft 438 kts 334°
2026-04-20 09:58 28.88174 31.78416 38009 ft 438 kts 334°
2026-04-20 09:58 28.94060 31.76540 38009 ft 441 kts 334°
2026-04-20 09:59 28.99970 31.74655 37998 ft 438 kts 333°
2026-04-20 09:59 29.05842 31.72752 38004 ft 439 kts 334°
2026-04-20 10:00 29.11749 31.70838 38003 ft 440 kts 334°
2026-04-20 10:00 29.17604 31.68939 38011 ft 439 kts 334°
2026-04-20 10:01 29.23516 31.67019 38018 ft 440 kts 334°
2026-04-20 10:01 29.29404 31.65108 38018 ft 441 kts 334°
2026-04-20 10:02 29.35267 31.63199 38010 ft 439 kts 334°
2026-04-20 10:02 29.41173 31.61275 38008 ft 440 kts 334°
2026-04-20 10:03 29.47055 31.59356 38011 ft 441 kts 334°
2026-04-20 10:03 29.52947 31.57429 38007 ft 439 kts 334°
2026-04-20 10:04 29.58818 31.55511 38007 ft 440 kts 334°
2026-04-20 10:04 29.64701 31.53584 38005 ft 439 kts 334°
2026-04-20 10:05 29.70577 31.51658 38002 ft 439 kts 334°
2026-04-20 10:05 29.76453 31.49717 37998 ft 440 kts 334°
2026-04-20 10:06 29.82318 31.47778 38002 ft 439 kts 334°
2026-04-20 10:06 29.88220 31.45823 38008 ft 439 kts 335°
2026-04-20 10:07 29.94097 31.43876 38007 ft 439 kts 335°
2026-04-20 10:07 29.99944 31.41935 38004 ft 440 kts 335°
2026-04-20 10:08 30.05846 31.39962 38014 ft 437 kts 333°
2026-04-20 10:08 30.08641 31.38621 37996 ft 425 kts 323°
2026-04-20 10:08 30.11089 31.36816 38004 ft 416 kts 315°
2026-04-20 10:09 30.15325 31.32338 38019 ft 411 kts 309°
2026-04-20 10:09 30.19495 31.27846 38004 ft 411 kts 310°
2026-04-20 10:10 30.23694 31.23329 38007 ft 411 kts 310°
2026-04-20 10:10 30.27851 31.18851 38005 ft 410 kts 310°
2026-04-20 10:11 30.32029 31.14352 37989 ft 410 kts 310°
2026-04-20 10:11 30.36186 31.09864 37996 ft 409 kts 310°
2026-04-20 10:12 30.40347 31.05369 37993 ft 410 kts 310°
2026-04-20 10:12 30.44530 31.00847 37981 ft 411 kts 310°
2026-04-20 10:13 30.48707 30.96322 37983 ft 412 kts 310°
2026-04-20 10:13 30.52874 30.91801 37983 ft 411 kts 310°
2026-04-20 10:14 30.57053 30.87267 37978 ft 411 kts 310°
2026-04-20 10:14 30.61220 30.82737 37982 ft 411 kts 310°
2026-04-20 10:15 30.65383 30.78205 37979 ft 411 kts 310°
2026-04-20 10:15 30.69552 30.73662 37981 ft 411 kts 310°
2026-04-20 10:16 30.73713 30.69124 37986 ft 411 kts 310°
2026-04-20 10:16 30.77872 30.64581 37971 ft 412 kts 310°
2026-04-20 10:17 30.82028 30.60036 38031 ft 411 kts 310°
2026-04-20 10:17 30.86198 30.55465 37993 ft 410 kts 310°
2026-04-20 10:18 30.90350 30.50915 37983 ft 411 kts 310°
2026-04-20 10:18 30.94500 30.46357 37993 ft 411 kts 311°
2026-04-20 10:19 30.98652 30.41795 37993 ft 410 kts 310°
2026-04-20 10:19 31.02812 30.37216 37998 ft 411 kts 311°
2026-04-20 10:20 31.06960 30.32607 38012 ft 408 kts 308°
2026-04-20 10:20 31.09981 30.27213 38027 ft 398 kts 289°
2026-04-20 10:21 31.11692 30.21094 38018 ft 397 kts 285°
2026-04-20 10:21 31.13358 30.14952 38029 ft 396 kts 285°
2026-04-20 10:22 31.15026 30.08824 38030 ft 397 kts 285°
2026-04-20 10:22 31.16693 30.02688 38028 ft 397 kts 285°
2026-04-20 10:23 31.18954 29.96860 38041 ft 402 kts 301°
2026-04-20 10:23 31.22950 29.92164 38041 ft 417 kts 319°
2026-04-20 10:24 31.28172 29.89047 38043 ft 425 kts 327°
2026-04-20 10:24 31.33458 29.85881 38023 ft 424 kts 325°
2026-04-20 10:25 31.38652 29.82653 38031 ft 424 kts 324°
2026-04-20 10:25 31.43833 29.79408 38027 ft 424 kts 325°
2026-04-20 10:26 31.49031 29.76146 38021 ft 422 kts 324°
2026-04-20 10:26 31.54235 29.72875 38022 ft 425 kts 325°
2026-04-20 10:27 31.59446 29.69598 38018 ft 424 kts 324°
2026-04-20 10:27 31.64624 29.66335 38020 ft 425 kts 324°
2026-04-20 10:28 31.69840 29.63045 38018 ft 425 kts 324°
2026-04-20 10:28 31.75056 29.59749 38024 ft 425 kts 325°
2026-04-20 10:29 31.80256 29.56462 38021 ft 425 kts 325°
2026-04-20 10:29 31.85445 29.53175 38025 ft 425 kts 325°
2026-04-20 10:30 31.90669 29.49863 38030 ft 425 kts 325°
2026-04-20 10:30 31.95873 29.46559 38032 ft 426 kts 325°
2026-04-20 10:31 32.01075 29.43252 38021 ft 425 kts 325°
2026-04-20 10:31 32.06261 29.39951 38023 ft 426 kts 325°
2026-04-20 10:32 32.11482 29.36623 38023 ft 426 kts 325°
2026-04-20 10:32 32.16719 29.33281 38038 ft 425 kts 324°
2026-04-20 10:33 32.21893 29.29976 38031 ft 424 kts 324°
2026-04-20 10:33 32.27100 29.26638 38021 ft 424 kts 324°
2026-04-20 10:34 32.32297 29.23306 38017 ft 424 kts 324°
2026-04-20 10:35 32.40093 29.18298 38009 ft 425 kts 324°
2026-04-20 10:35 32.45258 29.14974 38016 ft 424 kts 324°
2026-04-20 10:36 32.50456 29.11624 38014 ft 425 kts 324°
2026-04-20 10:36 32.55642 29.08279 38010 ft 424 kts 324°
2026-04-20 10:37 32.60855 29.04911 38010 ft 425 kts 324°
2026-04-20 10:37 32.66030 29.01562 38012 ft 425 kts 324°
2026-04-20 10:38 32.71202 28.98214 38014 ft 424 kts 324°
2026-04-20 10:38 32.76390 28.94847 38013 ft 424 kts 324°
2026-04-20 10:39 32.81564 28.91487 38013 ft 424 kts 324°
2026-04-20 10:39 32.86725 28.88131 38007 ft 423 kts 324°
2026-04-20 10:40 32.91874 28.84777 38006 ft 423 kts 324°
2026-04-20 10:40 32.97082 28.81381 38007 ft 423 kts 324°
2026-04-20 10:41 33.02209 28.78032 38009 ft 423 kts 324°
2026-04-20 10:41 33.07391 28.74643 38008 ft 424 kts 324°
2026-04-20 10:42 33.12562 28.71258 38011 ft 424 kts 324°
2026-04-20 10:42 33.17742 28.67863 38008 ft 425 kts 325°
2026-04-20 10:43 33.22919 28.64464 38011 ft 425 kts 325°
2026-04-20 10:43 33.28107 28.61054 38007 ft 424 kts 325°
2026-04-20 10:44 33.33268 28.57655 38007 ft 424 kts 324°
2026-04-20 10:44 33.38443 28.54244 38007 ft 424 kts 325°
2026-04-20 10:45 33.43599 28.50840 38002 ft 424 kts 324°
2026-04-20 10:45 33.48771 28.47420 38007 ft 424 kts 325°
2026-04-20 10:46 33.53939 28.44000 38000 ft 425 kts 325°
2026-04-20 10:46 33.59105 28.40573 37997 ft 424 kts 325°
2026-04-20 10:47 33.64246 28.37162 38003 ft 425 kts 325°
2026-04-20 10:47 33.69418 28.33724 38008 ft 424 kts 324°
2026-04-20 10:48 33.74582 28.30288 38010 ft 424 kts 324°
2026-04-20 10:48 33.79764 28.26834 38012 ft 425 kts 324°
2026-04-20 10:49 33.84890 28.23381 38007 ft 424 kts 324°
2026-04-20 10:49 33.90055 28.19892 38008 ft 425 kts 324°
2026-04-20 10:50 33.95201 28.16413 38007 ft 424 kts 324°
2026-04-20 10:50 34.00330 28.12942 38008 ft 424 kts 324°
2026-04-20 10:51 34.05468 28.09458 38002 ft 424 kts 324°
2026-04-20 10:51 34.10615 28.05965 38010 ft 424 kts 324°
2026-04-20 10:52 34.15761 28.02466 37999 ft 425 kts 324°
2026-04-20 10:52 34.20881 27.98981 38002 ft 424 kts 324°
2026-04-20 10:53 34.26033 27.95470 37998 ft 425 kts 324°
2026-04-20 10:53 34.31202 27.91937 38000 ft 425 kts 324°
2026-04-20 10:54 34.36345 27.88421 38006 ft 425 kts 325°
2026-04-20 10:54 34.41522 27.84880 38000 ft 425 kts 325°
2026-04-20 10:55 34.46645 27.81367 38000 ft 425 kts 325°
2026-04-20 10:55 34.51817 27.77815 38002 ft 426 kts 325°
2026-04-20 10:56 34.56959 27.74269 37999 ft 426 kts 324°
2026-04-20 10:56 34.62109 27.70712 38000 ft 426 kts 325°
2026-04-20 10:57 34.67279 27.67134 37999 ft 426 kts 325°
2026-04-20 10:57 34.72400 27.63585 37995 ft 427 kts 325°
2026-04-20 10:58 34.77576 27.59993 37997 ft 426 kts 325°
2026-04-20 10:58 34.82713 27.56421 37996 ft 426 kts 325°
2026-04-20 10:59 34.87853 27.52842 37994 ft 427 kts 325°
2026-04-20 10:59 34.92993 27.49260 37991 ft 426 kts 325°
2026-04-20 11:00 34.98159 27.45652 37990 ft 426 kts 325°
2026-04-20 11:00 35.03289 27.42066 37992 ft 426 kts 325°
2026-04-20 11:01 35.08428 27.38469 37991 ft 426 kts 325°
2026-04-20 11:01 35.13585 27.34851 37995 ft 427 kts 324°
2026-04-20 11:02 35.18726 27.31241 38000 ft 426 kts 324°
2026-04-20 11:02 35.23881 27.27615 38000 ft 427 kts 324°
2026-04-20 11:03 35.29009 27.24003 37998 ft 426 kts 325°
2026-04-20 11:03 35.34166 27.20366 38000 ft 426 kts 325°
2026-04-20 11:04 35.39326 27.16720 38002 ft 428 kts 325°
2026-04-20 11:04 35.44403 27.12984 37997 ft 425 kts 322°
2026-04-20 11:05 35.49399 27.09041 38001 ft 426 kts 323°
2026-04-20 11:05 35.54385 27.05123 38002 ft 426 kts 322°
2026-04-20 11:06 35.59386 27.01185 38004 ft 427 kts 323°
2026-04-20 11:06 35.64375 26.97254 38004 ft 426 kts 323°
2026-04-20 11:07 35.69352 26.93324 38006 ft 427 kts 323°
2026-04-20 11:07 35.74363 26.89363 38006 ft 427 kts 323°
2026-04-20 11:08 35.79333 26.85428 38008 ft 427 kts 322°
2026-04-20 11:08 35.84349 26.81451 38003 ft 427 kts 323°